Location: D�ckingen
(48.9332°N, 10.7608°E)
Time: 00:24:27
(UTC+00:00)

Daily predictions for brighter satellites

Satellite Brightness Start Highest point End
(mag) Time Altitude Azimuth Time Altitude Azimuth Time Altitude Azimuth
SL-16 R/B 3.6 00:12:20 41° NNE 00:12:20 41° NNE 00:16:46 10° N
Cosmos 1943 Rocket 4.0 00:17:16 25° NNW 00:17:16 25° NNW 00:20:16 10° NNE
ATLAS 5 CENTAUR R/B 4.5 00:26:24 13° NE 00:26:24 13° NE 00:26:59 10° NE
CZ-2D R/B 4.0 00:18:06 10° NNE 00:20:45 25° NE 00:20:45 25° NE
Cosmos 2297 Rocket 3.7 00:25:06 10° NNW 00:28:49 33° NNE 00:28:49 33° NNE
Resurs 1-4 Rocket 3.7 00:32:01 10° NNE 00:34:54 30° NE 00:34:54 30° NE
Cosmos 2369 Rocket 3.9 00:41:05 26° NNW 00:41:05 26° NNW 00:44:28 10° NNE
CZ-4C R/B 4.1 00:47:10 23° NNW 00:48:28 25° NNW 00:53:55 10° NE
USA 267 4.3 00:50:15 10° ENE 00:54:57 34° ESE 00:54:57 34° ESE
SL-8 Rocket 4.4 01:07:22 10° N 01:12:13 56° N 01:12:13 56° N
Cosmos 2218 Rocket 4.2 01:18:37 10° N 01:24:06 67° NNW 01:24:06 67° NNW
Cosmos 2366 rocket 4.2 01:21:13 10° N 01:26:34 66° NNW 01:26:34 66° NNW
Cosmos 2227 Rocket 3.3 01:21:59 10° NNW 01:25:13 35° NNW 01:25:13 35° NNW
Cosmos 1656 4.3 01:30:38 50° E 01:30:38 50° E 01:35:16 10° NE
Lacrosse 5 3.6 01:32:48 25° ESE 01:32:48 25° ESE 01:35:53 10° ENE
USA 234 3.3 01:26:20 10° ESE 01:32:50 73° NNE 01:37:43 19° NW
ADEOS II 2.5 01:33:50 10° NNE 01:38:28 61° ENE 01:38:28 61° ENE
CZ-4B R/B 3.9 01:36:34 10° NNE 01:40:48 60° NE 01:40:48 60° NE
SL-08 R/B 4.0 01:47:13 51° NNE 01:47:13 51° NNE 01:51:02 10° N
Cosmos 2181 Rocket 4.1 01:47:56 60° NW 01:47:56 60° NW 01:53:27 10° N
SL-08 R/B 4.5 01:42:20 10° N 01:48:47 87° E 01:49:27 74° SSE
Cosmos 1633 Rocket 4.4 01:46:20 10° N 01:48:58 35° N 01:48:58 35° N
IDEFIX/ARIANE 42P 3.9 01:47:08 10° NNE 01:51:58 35° E 01:53:41 28° SE
SL-16 R/B 3.9 01:57:26 24° NW 01:57:26 24° NW 02:00:14 10° NNW
Cosmos 1241 Rocket 4.5 01:54:48 67° WNW 01:55:01 67° NW 02:01:27 10° NE
IRS-1C 4.4 01:50:14 10° NNE 01:55:33 61° ESE 01:55:57 60° SE
Cosmos 1151 Rocket 3.8 02:00:39 49° ENE 02:00:39 49° ENE 02:04:19 10° NNE
ARIANE 5 R/B 3.0 01:56:07 10° NNE 02:01:08 52° E 02:01:51 48° SE
IRS-1D 3.6 01:56:50 10° NNE 02:01:47 70° NNW 02:01:47 70° NNW
CZ-2D R/B 3.1 01:58:11 10° N 02:02:04 35° NW 02:02:04 35° NW
ATLAS 5 CENTAUR R/B 2.8 02:07:56 35° NNW 02:07:56 35° NNW 02:11:52 10° NNE
NPP 4.4 02:04:11 10° N 02:08:28 38° NW 02:08:28 38° NW
CBERS-1 4.2 02:09:20 10° N 02:13:59 60° NW 02:13:59 60° NW
Cosmos 2297 Rocket 4.1 02:09:15 10° NW 02:10:32 17° NW 02:10:32 17° NW
Resurs 1-4 Rocket 3.3 02:12:14 10° N 02:15:58 28° NW 02:15:58 28° NW
Cosmos 1933 3.9 02:18:15 53° N 02:18:15 53° N 02:21:27 10° N
Cosmos 2082 3.5 02:13:17 10° NNW 02:18:58 75° WSW 02:20:23 51° S
USA 305 3.7 02:22:42 44° ESE 02:22:42 44° ESE 02:26:22 10° ENE
Meteor 1-26 Rocket 4.4 02:24:04 36° SSE 02:26:13 65° E 02:31:35 10° NNE
USA 306 3.5 02:26:37 48° SE 02:26:37 48° SE 02:30:27 10° ENE
X-37B 3.1 02:29:08 18° ESE 02:29:08 18° ESE 02:30:12 10° ESE
CZ-2D R/B 3.8 02:24:03 10° NNE 02:28:14 64° ESE 02:28:45 58° SE
SJ 16-02 3.2 02:25:11 10° N 02:29:06 31° ENE 02:33:01 10° ESE
Meteor 1-25 Rocket 4.1 02:25:01 10° NNW 02:30:51 74° W 02:33:00 40° S
Cosmos 389 Rocket 3.6 02:32:19 38° ESE 02:32:43 40° E 02:36:05 10° NNE
Cosmos 1697 Rocket 2.6 02:32:33 54° SSW 02:33:54 89° WNW 02:39:33 10° NNE
ASTEX 1 3.5 02:29:17 10° N 02:34:18 76° E 02:36:22 36° S
IRS-P3 4.1 02:29:25 10° N 02:34:43 63° WNW 02:35:28 56° WSW
H-2A R/B 2.8 02:32:54 10° SSE 02:37:09 54° ENE 02:41:31 10° N
Cosmos 1980 Rocket 2.7 02:35:19 29° S 02:38:03 57° ESE 02:43:36 10° NE
CZ-2C R/B 4.2 02:33:47 10° NNE 02:38:17 30° E 02:42:49 10° SSE
USA 267 3.2 02:33:07 10° NE 02:39:41 82° NNW 02:42:17 40° WSW
ERS-2 4.0 02:37:21 10° SE 02:40:37 31° ENE 02:43:53 10° N
Iridium 2 4.2 02:39:47 44° SE 02:40:39 56° E 02:44:20 10° NNE
Cosmos 1602 3.8 02:39:54 10° NNW 02:43:13 63° NNW 02:43:13 63° NNW
ERS-1 4.5 02:39:20 10° N 02:44:26 68° WNW 02:45:42 49° SW
Cosmos 2263 Rocket 2.9 02:39:39 10° NNW 02:45:13 55° NE 02:50:47 10° SE
SL-8 R/B 3.6 02:46:01 60° WSW 02:46:46 73° SSW 02:51:32 10° ESE
Cosmos 1818 4.4 02:46:11 32° WNW 02:47:28 36° NW 02:52:32 10° NNE
Meteor 1-14 Rocket 4.1 02:41:56 10° NNW 02:47:38 89° ENE 02:53:11 10° S
SL-16 R/B 4.3 02:47:06 10° SSE 02:51:28 23° ESE 02:55:50 10° NE
ATLAS 2AS CENTAUR R/B 4.1 02:44:21 10° NW 02:51:33 40° NNE 02:58:15 10° E
USA 307 2.9 02:52:25 57° SSW 02:53:06 71° SSE 02:57:21 10° ENE
NOSS 2-2 (D) 4.5 02:48:06 10° NW 02:53:40 65° SW 03:01:22 10° SSE
Cosmos 1821 Rocket 4.2 02:48:03 10° NNW 02:54:04 48° W 02:56:29 33° SW
Cosmos 1470 Rocket 3.8 02:51:14 10° NNW 02:55:25 49° W 02:55:25 49° W
Cosmos 1812 4.2 02:52:25 10° SSE 02:55:57 36° E 02:59:31 10° NNE
USA 308 2.9 02:55:23 55° SSW 02:56:11 74° SSE 03:00:27 10° ENE
Cosmos 2227 4.5 02:50:33 10° NNW 02:56:14 70° ENE 03:01:51 10° SE
Spot 4 Rocket 3.9 02:52:11 10° NNE 02:57:21 76° WNW 02:59:44 33° SSW
Cosmos 1500 3.6 02:56:43 10° N 03:00:33 64° E 03:04:20 10° SSE
Cosmos 972 4.5 02:59:29 23° S 03:02:37 76° ESE 03:07:30 10° NNE
Landsat 5 3.5 03:00:40 10° SSE 03:05:12 81° WSW 03:09:43 10° NNW
Cosmos 1666 4.4 03:02:49 10° N 03:06:22 34° ENE 03:09:53 10° SE
Meteor 1-5 Rocket 4.3 03:01:45 10° N 03:07:04 73° ENE 03:12:26 10° SSE
Cosmos 1934 Rocket 3.9 03:03:14 10° NNW 03:09:12 60° W 03:15:08 10° S
Cosmos 1777 Rocket 4.4 03:05:13 10° NW 03:10:01 37° WSW 03:12:06 26° SSW
Cosmos 1782 3.0 03:10:11 43° WSW 03:11:00 52° WNW 03:14:58 10° N
Cosmos 1238 Rocket 4.0 03:04:52 10° NNW 03:11:28 66° W 03:17:37 10° S
Cosmos 1898 Rocket 4.2 03:08:50 10° NNW 03:14:00 56° ENE 03:19:11 10° SE
Lacrosse 5 1.8 03:12:00 34° WSW 03:14:14 77° NNW 03:19:20 10° NE
ADEOS Rocket 3.4 03:08:59 10° SSE 03:15:47 71° ENE 03:21:55 10° N
CZ-4B R/B 3.0 03:13:02 10° SE 03:15:56 35° ENE 03:18:56 10° N
USA 234 3.5 03:09:53 10° SSE 03:16:06 46° SW 03:22:21 10° WNW
Cosmos 1515 Rocket 3.9 03:15:08 34° SW 03:16:33 47° WNW 03:20:53 10° N
CZ-2C R/B 2.7 03:13:22 10° N 03:17:05 61° WNW 03:18:32 34° SW
ADEOS II 3.4 03:14:22 10° N 03:18:18 22° WNW 03:19:23 21° WNW
IRIDIUM 114 4.4 03:15:13 10° N 03:20:29 83° E 03:25:42 10° S
USA 276 2.1 03:21:38 45° W 03:22:29 79° N 03:25:43 10° ENE
Cosmos 972 Rocket 4.5 03:24:15 27° WSW 03:26:09 38° WNW 03:30:46 10° N
Cosmos 44 3.1 03:24:49 23° SW 03:27:34 85° SE 03:32:16 10° NE
MSX 3.9 03:22:09 10° N 03:27:51 60° WNW 03:32:39 15° SW
Cosmos 1356 3.9 03:24:47 10° NNW 03:27:59 36° W 03:28:27 34° WSW
IRIDIUM 103 4.3 03:24:22 10° N 03:29:37 83° W 03:34:50 10° S
Cosmos 921 Rocket 2.9 03:27:48 14° SSW 03:31:21 87° ESE 03:35:34 10° NNE
IDEFIX/ARIANE 42P 3.2 03:26:44 10° N 03:31:35 38° WNW 03:34:28 21° WSW
Cosmos 2278 3.8 03:28:10 22° SW 03:31:53 58° WNW 03:37:33 10° NNE
Cosmos 1605 Rocket 4.0 03:25:41 10° NNW 03:31:59 64° W 03:38:18 10° S
Meteor 1-11 Rocket 3.9 03:26:22 10° N 03:32:14 78° ENE 03:37:55 10° SSE
Cosmos 1933 Rocket 4.3 03:28:59 10° NNW 03:32:46 29° W 03:34:18 23° SW
CZ-3B R/B 3.2 03:32:05 21° WNW 03:34:22 52° N 03:45:14 10° ENE
Cosmos 2228 Rocket 3.1 03:31:12 15° SSW 03:34:41 58° WNW 03:39:03 10° N
SAR-Lupe-4 4.2 03:34:03 10° SSE 03:37:34 59° ENE 03:41:08 10° N
ARIANE 5 R/B 3.6 03:35:46 10° N 03:39:57 26° WNW 03:42:10 19° W
Cosmos 2369 4.4 03:36:41 21° WSW 03:40:00 38° NW 03:45:22 10° NNE
Cosmos 1937 Rocket 3.8 03:38:00 10° NNW 03:43:10 70° ENE 03:48:17 10° SSE
CZ-4C R/B 4.0 03:42:39 20° SW 03:44:07 26° W 03:47:11 10° NW
ALOS 3.3 03:42:22 10° NNE 03:46:54 48° E 03:51:25 10° S
Cosmos 1733 Rocket 3.8 03:42:43 10° N 03:47:02 56° ENE 03:51:18 10° SSE
IRIDIUM 106 4.4 03:42:46 10° N 03:47:55 59° W 03:53:01 10° SSW
Meteor 1-27 Rocket 4.2 03:42:11 10° S 03:48:04 71° E 03:53:59 10° NNE
SAR-Lupe-1 4.2 03:46:19 10° SSE 03:49:52 79° ENE 03:53:28 10° NNW
Cosmos 1536 3.0 03:46:43 10° N 03:50:50 80° E 03:54:53 10° SSE
Cosmos 1869 Rocket 3.8 03:47:43 10° NNW 03:51:52 44° W 03:55:59 10° SSW
ATLAS 5 CENTAUR R/B 3.9 03:50:25 10° NW 03:53:28 17° N 03:56:48 10° NNE
GENESIS II 4.4 03:51:47 11° SW 03:55:43 80° SE 03:59:47 10° NE
Cosmos 1484 Rocket 3.4 03:51:49 10° NNE 03:55:45 60° E 03:59:42 10° S
Meteor 1-4 Rocket 2.4 03:53:29 10° SSW 03:56:55 63° WNW 04:00:25 10° N
USA 305 3.2 03:58:51 15° W 04:02:17 56° NNW 04:06:29 10° ENE
X-37B 1.4 04:01:25 16° WSW 04:03:32 36° S 04:06:31 10° ESE
Cosmos 1862 Rocket 4.4 03:59:28 10° S 04:03:45 54° E 04:08:02 10° NNE
Cosmos 1689 Rocket 2.7 04:01:25 10° SSE 04:04:20 60° ENE 04:07:17 10° N
USA 306 3.3 04:02:46 14° W 04:06:22 55° NNW 04:10:34 10° ENE
Meteor 1-31 Rocket 3.2 04:02:44 10° NNE 04:06:33 63° ESE 04:10:20 10° S
Cosmos 2100 Rocket 4.0 04:00:15 10° N 04:06:39 82° W 04:13:02 10° S
Cosmos 1727 Rocket 4.1 04:01:03 10° SSW 04:07:21 65° WNW 04:13:40 10° N
Cosmos 1763 Rocket 3.6 04:02:04 10° SSW 04:07:24 90° E 04:12:45 10° NNE
Cosmos 389 Rocket 4.3 04:06:11 13° W 04:07:38 16° WNW 04:09:56 10° NNW
SJ 16-02 2.0 04:03:45 10° NW 04:07:42 33° WSW 04:11:36 10° SSW
PSLV R/B 4.0 04:05:04 10° N 04:09:00 38° WNW 04:12:52 10° SW
Cosmos 1802 Rocket 4.2 04:02:47 10° N 04:09:00 81° E 04:15:16 10° SSE
Cosmos 2360 Rocket 3.5 04:06:46 10° S 04:12:05 43° ESE 04:17:25 10° NE
H-2A R/B 3.5 04:10:22 10° SW 04:13:27 19° W 04:16:37 10° NW
ERS-2 3.3 04:11:16 10° SSW 04:14:13 23° W 04:17:10 10° NW
CZ-2C R/B 2.9 04:11:49 10° N 04:16:36 43° WNW 04:21:27 10° SW
Cosmos 1697 Rocket 4.1 04:14:27 10° W 04:18:41 21° NW 04:22:56 10° N
NOSS 3-4 (A) 3.9 04:12:09 10° NW 04:19:06 86° SW 04:26:51 10° SE
NOSS 3-4 (C) 3.9 04:12:15 10° NW 04:19:13 87° SW 04:26:57 10° SE
METEOR-M 4.3 04:15:38 10° NNE 04:21:01 82° ESE 04:26:23 10° SSW
USA 267 3.9 04:16:08 10° ENE 04:22:21 48° N 04:28:33 10° W
Cosmos 1980 Rocket 3.2 04:17:22 10° WSW 04:22:23 31° NW 04:27:24 10° NNE
FENGYUN 3A 3.7 04:18:57 10° NNE 04:24:22 81° WNW 04:29:46 10° SSW
Cosmos 1844 4.3 04:19:43 10° NNW 04:25:15 61° ENE 04:30:45 10° SE
Cosmos 2322 Rocket 2.3 04:21:39 10° SSW 04:27:20 86° WNW 04:33:05 10° NNE
Cosmos 1459 Rocket 4.0 04:22:21 10° NNW 04:28:23 62° W 04:34:19 10° S
SJ-12 4.3 04:24:38 10° NNE 04:28:46 71° ESE 04:32:53 10° S
Cosmos 2263 Rocket 3.0 04:24:06 10° NW 04:28:50 28° WSW 04:33:33 10° SSW
CZ-4C R/B 3.9 04:22:45 10° NW 04:29:23 49° NE 04:37:07 10° ESE
NOSS 3-3 (A) 4.2 04:23:37 10° WSW 04:29:28 61° NW 04:36:10 10° NE
NOSS 3-3 (C) 4.1 04:23:48 10° WSW 04:29:35 61° NW 04:36:15 10° NE
Cosmos 468 Rocket 4.2 04:26:56 10° SW 04:32:08 54° WNW 04:37:19 10° NNE
Cosmos 2123 Rocket 4.4 04:25:58 10° S 04:32:10 75° E 04:38:28 10° NNE
